Location: Maccacari
(45.1333°N, 11.1333°E)
Time: 03:30:32
(UTC+00:00)

Altair - Pass Details

Date: 27 January 2021
Orbit: 1501 x 1682 km, 47.2° (Epoch: 01 March)

Event Time Altitude Azimuth Distance (km) Brightness Sun altitude
Rises 03:44:30 0° 232° (SW) 4,832 - -31.1°
Reaches altitude 10° 03:47:36 10° 230° (SW) 3,869 - -30.6°
Exits shadow 03:53:16 40° 218° (SW) 2,296 8.0 -29.6°
Maximum altitude 03:57:26 68° 150° (SSE) 1,773 7.8 -28.8°
Drops below altitude 10° 04:07:30 10° 71° (ENE) 3,950 10.5 -27.0°
Sets 04:10:42 0° 69° (ENE) 4,937 11.2 -26.5°
